Location: ?????
(37.7324°N, 23.9257°E)
Time: 21:50:20
(UTC+00:00)

Cosmos 1680 Rocket - Pass Details

Date: 29 November 2020
Orbit: 760 x 781 km, 74.1° (Epoch: 18 January)

Event Time Altitude Azimuth Distance (km) Brightness Sun altitude
Exits shadow 04:20:10 - 328° (NNW) 2,548 5.7 -11.6°
Reaches altitude 10° 04:20:45 10° 326° (NW) 2,341 5.5 -11.5°
Maximum altitude 04:25:40 39° 259° (WSW) 1,149 4.0 -10.5°
Drops below altitude 10° 04:30:33 10° 191° (S) 2,320 6.1 -9.6°
Sets 04:33:02 0° 184° (S) 3,240 7.0 -9.2°
